Location: Belfast
(54.5830°N, 5.9330°W)
Time: 02:41:54
(UTC+00:00)

ISS - Pass Details

Date: 03 February 2021
Orbit: 417 x 422 km, 51.6° (Epoch: 25 February)

Event Time Altitude Azimuth Distance (km) Brightness Sun altitude
Rises 19:26:09 0° 274° (W) 2,378 1.7 -20.2°
Reaches altitude 10° 19:29:22 10° 241° (WSW) 1,510 -0.1 -20.7°
Maximum altitude 19:30:40 12° 218° (SW) 1,406 -0.6 -20.9°
Drops below altitude 10° 19:31:56 10° 196° (SSW) 1,507 -0.8 -21.0°
Enters shadow 19:32:53 - 183° (S) 1,696 -0.7 -21.2°
